BEIJING 1 (TSINGHUA) 1 28890U 05043A 21067.05705812 .00000056 00000-0 20707-4 0 9994 2 28890 98.0587 194.6674 0015127 190.8464 169.2407 14.61321577819016 HJ-1A 1 33320U 08041A 21067.18962809 .00000180 00000-0 32361-4 0 9991 2 33320 97.7508 115.4876 0023467 285.4479 74.4136 14.77126313673536 HJ-1B 1 33321U 08041B 21067.21975327 .00000154 00000-0 28540-4 0 9990 2 33321 97.7586 118.1566 0033787 326.2493 33.6569 14.77335128673549 YAOGAN 4 1 33446U 08061A 21067.13809017 .00000097 00000-0 20650-4 0 9993 2 33446 97.7638 18.1499 0015657 200.4554 159.6032 14.77074035660756 DEIMOS 1 1 35681U 09041A 21067.06140046 -.00000123 00000-0 -12303-4 0 9995 2 35681 97.7751 295.5117 0000335 4.7321 355.3903 14.71876341623167 DMC 2 1 35683U 09041C 21067.07578944 -.00000040 00000-0 93059-6 0 9996 2 35683 97.6861 261.0567 0001397 77.0731 283.0632 14.71192238622930 RISAT 1 1 38248U 12017A 21067.02038207 .00000594 00000-0 40064-4 0 9990 2 38248 97.5642 79.0065 0005628 69.6833 290.5001 15.10385273488410 DMC 3-FM1 1 40715U 15032A 21067.17035109 .00000055 00000-0 15909-4 0 9998 2 40715 97.9061 320.5664 0017024 96.2697 264.0453 14.73690910304494 DMC 3-FM2 1 40716U 15032B 21067.19248659 .00000038 00000-0 13308-4 0 9999 2 40716 97.9087 321.0339 0014286 104.2028 256.0767 14.73704776304500 DMC 3-FM3 1 40717U 15032C 21067.21504759 .00000036 00000-0 13078-4 0 9991 2 40717 97.9105 321.8257 0017972 97.6664 262.6589 14.73692487304505